Regional Weather Roundup
Issued by NWS

Home | Current Version | Previous Version | Text Only | Print | Product List | Glossary Off
Versions: 1 2 3 4 5 6 7 8 9 10 11 12 13 14 15 16 17 18 19 20 21 22 23 24 25 26 27 28 29 30 31 32 33 34 35 36 37 38 39 40 41 42 43 44 45 46 47 48 49 50

000
ASUS45 KSLC 230310
RWRUT

UTAH REGIONAL WEATHER ROUNDUP
NATIONAL WEATHER SERVICE SALT LAKE CITY UT
800 PM MST THU FEB 22 2018

UTZ001>011-023>025-230400-

NORTHERN UTAH

CITY           SKY/WX    TMP DP  RH WIND       PRES   REMARKS
BRIGHAM CITY   CLOUDY    28  24  85 CALM      29.99S
HILL AFB       MOCLDY    27  18  67 SE8       29.94S WCI  19
LOGAN          CLOUDY    22  15  75 CALM      29.98R
OGDEN          CLOUDY    30  19  63 SE6       29.94S WCI  24
SALT LAKE CITY CLOUDY    33  21  61 S12       29.95S WCI  24
TOOELE VALLEY  CLOUDY    30  23  74 SW6       29.95S WCI  24
WENDOVER       LGT SNOW  25  22  88 NE9       29.96S FOG     WCI  15
HEBER CITY       N/A     23  21  93 W5        29.92S WCI  17
WEST JORDAN    CLOUDY    26  23  87 S12       29.96R WCI  16

$$

UTZ011>015-024>027-230400-

CENTRAL/NORTHEAST UTAH

CITY           SKY/WX    TMP DP  RH WIND       PRES   REMARKS
PROVO AIRPORT  CLOUDY    30  21  69 CALM      29.97S
MOAB/CANYONLAN CLOUDY    34  10  37 CALM      29.95S
DELTA          CLOUDY    27  21  80 N3        29.93S
PRICE          CLOUDY    25  22  88 N5        29.92S WCI  19
RICHFIELD      CLOUDY    27  27 100 N7        29.95R WCI  19
VERNAL         LGT SNOW  24  20  84 CALM      29.98R VSB 1

$$

UTZ013>016-019>022-027-230400-

SOUTHERN UTAH

CITY           SKY/WX    TMP DP  RH WIND       PRES   REMARKS
BRYCE CANYON   CLOUDY    19  14  81 S3        29.90R
CEDAR CITY     MOCLDY    25  23  92 SW15      29.91R WCI  13
MILFORD        CLOUDY    26  18  71 SW10      29.91R WCI  16
ST GEORGE      CLOUDY    39  29  67 S15G28    29.97S WCI  31
HANKSVILLE     MOCLDY    34   9  35 CALM      29.98R
KANAB          CLOUDY    36  14  41 SW8       30.00R WCI  29
BLANDING         N/A     23   6  47 N7        30.03S WCI  14

$$

REGIONAL REPORTS     COLORADO/ARIZONA

CITY           SKY/WX    TMP DP  RH WIND       PRES   REMARKS
CRAIG, CO      LGT SNOW  22  19  89 E3        29.97S VSB 3/4
GRAND JUNCTION CLOUDY    29  28  96 S6        29.99R WCI  23
RIFLE, CO      LGT SNOW  27  25  92 CALM      29.99S FOG
MONTROSE, CO   CLOUDY    32  14  47 SW5       30.00R WCI  27
CORTEZ, CO     PTCLDY    23   6  48 SE5       29.99R WCI  17
COLORADO CITY  LGT SNOW  32  28  86 SW9       30.00S WCI  24
PAGE, AZ       MOCLDY    41  11  29 W5        29.96R
GRAND CANYON   CLOUDY    28  10  46 SW12      29.98R WCI  18
KINGMAN, AZ    PTCLDY    44  20  38 S22G30    30.00S
FLAGSTAFF, AZ  CLOUDY    26  16  65 SW21G29   30.01R WCI  12

$$

REGIONAL REPORTS    NEVADA/IDAHO/WYOMING

CITY           SKY/WX    TMP DP  RH WIND       PRES   REMARKS
LAS VEGAS, NV  PTCLDY    52  11  19 SW21G32   29.90S
ELY, NY        CLOUDY    17  15  92 W6        29.87S WCI   9
ELKO, NV       MOCLDY    20  14  77 CALM      29.90R
POCATELLO, ID  LGT SNOW  24  21  88 SW18      29.97R FOG     WCI  10
BURLEY, ID     MOCLDY    22  18  85 SW6       29.98R WCI  14
EVANSTON, WY   MOCLDY    11   8  88 E6        29.89R WCI   1
ROCK SPRINGS,  CLOUDY    11   5  77 W8        29.92R WCI  -1

$$



USA.gov is the U.S. government's official web portal to all federal, state and local government web resources and services.